Location: Lango�lan
(48.1202°N, 3.2340°W)
Time: 12:44:50
(UTC+00:00)

GP-B - Pass Details

Date: 23 October 2019
Orbit: 632 x 635 km, 89.8° (Epoch: 16 November)

Event Time Altitude Azimuth Distance (km) Brightness Sun altitude
Rises 05:24:23 0° 191° (S) 2,920 6.4 -13.9°
Reaches altitude 10° 05:26:40 10° 197° (SSW) 2,016 5.5 -13.5°
Maximum altitude 05:30:58 49° 273° (W) 822 3.3 -12.8°
Drops below altitude 10° 05:35:18 10° 348° (NNW) 2,031 5.6 -12.1°
Sets 05:37:36 0° 354° (N) 2,944 6.4 -11.7°
